EA3ANS-1 Weather Reports


Display with metric or nautical units.
time (UTC)temp
F
wind
direction
speed
MPH
gust
MPH
rain 1hr
in
rain 24hr
in
rain mn
in
humidity
%
barometer
mb
20260904223125 79 174 0.0 0.0 0.00 0.00 0.00 1018.6
20260904222128 80 174 0.0 0.0 0.00 0.00 0.00 1018.6
20260904221312 80 204 2.0 0.0 0.00 0.00 0.00 1018.6
20260904221125 80 204 2.0 0.0 0.00 0.00 0.00 1018.6
20260904220119 80 211 3.0 4.0 0.00 0.00 0.00 1018.5
20260904215121 80 236 0.0 0.0 0.00 0.00 0.00 1018.5
20260904214206 81 264 3.0 4.0 0.00 0.00 0.00 1018.5
20260904214124 81 264 3.0 4.0 0.00 0.00 0.00 1018.5
20260904213126 81 163 0.0 0.0 0.00 0.00 0.00 1018.5
20260904212129 81 225 3.0 3.0 0.00 0.00 0.00 1018.6
20260904211132 82 228 0.0 0.0 0.00 0.00 0.00 1018.5
20260904210134 82 228 0.0 0.0 0.00 0.00 0.00 1018.6
20260904205130 82 284 1.0 1.0 0.00 0.00 0.00 1018.6
20260904204134 83 233 4.0 3.0 0.00 0.00 0.00 1018.5
20260904203136 83 278 0.0 0.0 0.00 0.00 0.00 1018.5
20260904202136 83 273 0.0 0.0 0.00 0.00 0.00 1018.6
20260904201139 84 276 1.0 3.0 0.00 0.00 0.00 1018.5
20260904200141 84 214 2.0 1.0 0.00 0.00 0.00 1018.5
20260904195138 84 208 2.0 1.0 0.00 0.00 0.00 1018.5
20260904194132 85 194 0.0 0.0 0.00 0.00 0.00 1018.4
20260904193135 84 194 0.0 0.0 0.00 0.00 0.00 1018.3
20260904192136 85 217 1.0 1.0 0.00 0.00 0.00 1018.2
20260904191134 85 232 0.0 0.0 0.00 0.00 0.00 1018.2
20260904190137 85 177 2.0 2.0 0.00 0.00 0.00 1018.1
20260904185139 85 238 3.0 3.0 0.00 0.00 0.00 1017.8
20260904184230 86 160 2.0 2.0 0.00 0.00 0.00 1017.6
20260904184142 86 160 2.0 2.0 0.00 0.00 0.00 1017.6
20260904183130 86 236 4.0 3.0 0.00 0.00 0.00 1017.4
20260904182131 87 200 4.0 3.0 0.00 0.00 0.00 1017.3
20260904181133 88 197 3.0 4.0 0.00 0.00 0.00 1017.2
20260904180132 87 187 6.0 6.0 0.00 0.00 0.00 1017.0
20260904175135 88 214 5.0 7.0 0.00 0.00 0.00 1017.0
20260904174137 89 224 3.0 5.0 0.00 0.00 0.00 1017.0
20260904173140 89 243 6.0 6.0 0.00 0.00 0.00 1016.9
20260904172128 91 218 4.0 5.0 0.00 0.00 0.00 1016.8
20260904171124 91 225 6.0 3.0 0.00 0.00 0.00 1016.7
20260904170126 92 229 5.0 4.0 0.00 0.00 0.00 1016.5
20260904165123 93 226 4.0 9.0 0.00 0.00 0.00 1016.4
20260904164448 93 256 5.0 6.0 0.00 0.00 0.00 1016.3
20260904164126 93 256 5.0 6.0 0.00 0.00 0.00 1016.3
20260904163126 93 235 6.0 8.0 0.00 0.00 0.00 1016.2
20260904162129 93 224 6.0 4.0 0.00 0.00 0.00 1016.2
20260904161118 94 255 6.0 9.0 0.00 0.00 0.00 1016.3
20260904160121 93 250 7.0 5.0 0.00 0.00 0.00 1016.2
20260904155124 94 243 6.0 5.0 0.00 0.00 0.00 1016.4
20260904154126 94 243 8.0 4.0 0.00 0.00 0.00 1016.3
20260904153129 92 243 10.0 5.0 0.00 0.00 0.00 1016.4
20260904152132 94 181 7.0 10.0 0.00 0.00 0.00 1016.2
20260904151129 95 214 8.0 8.0 0.00 0.00 0.00 1016.2
20260904150116 95 198 6.0 6.0 0.00 0.00 0.00 1016.1
20260904145118 96 197 7.0 7.0 0.00 0.00 0.00 1016.1
20260904144121 95 198 10.0 7.0 0.00 0.00 0.00 1016.0
20260904143124 98 188 8.0 11.0 0.00 0.00 0.00 1016.0
20260904142126 97 238 7.0 9.0 0.00 0.00 0.00 1016.0
20260904141128 97 183 7.0 9.0 0.00 0.00 0.00 1016.0
20260904140131 98 207 8.0 8.0 0.00 0.00 0.00 1016.1
20260904135127 97 205 8.0 9.0 0.00 0.00 0.00 1016.0
20260904134127 98 183 7.0 5.0 0.00 0.00 0.00 1016.1
20260904133125 97 246 9.0 7.0 0.00 0.00 0.00 1016.2
20260904132126 98 211 7.0 8.0 0.00 0.00 0.00 1016.3
20260904131126 99 156 5.0 8.0 0.00 0.00 0.00 1016.3
20260904130125 99 207 5.0 4.0 0.00 0.00 0.00 1016.4
20260904125128 98 143 7.0 11.0 0.00 0.00 0.00 1016.5
20260904124118 98 180 5.0 10.0 0.00 0.00 0.00 1016.6
20260904123120 98 158 9.0 5.0 0.00 0.00 0.00 1016.6
20260904122109 97 225 7.0 1.0 0.00 0.00 0.00 1016.8
20260904121111 98 114 7.0 7.0 0.00 0.00 0.00 1016.8
20260904120113 97 113 5.0 5.0 0.00 0.00 0.00 1017.0
20260904115114 96 163 6.0 1.0 0.00 0.00 0.00 1017.0
20260904114106 97 107 5.0 5.0 0.00 0.00 0.00 1017.2
20260904113055 96 141 2.0 7.0 0.00 0.00 0.00 1017.3
20260904112057 96 146 5.0 4.0 0.00 0.00 0.00 1017.4
20260904111058 96 197 3.0 4.0 0.00 0.00 0.00 1017.5
20260904110101 95 93 0.0 2.0 0.00 0.00 0.00 1017.7
20260904105100 94 76 2.0 0.0 0.00 0.00 0.00 1017.9
20260904104055 93 135 0.0 2.0 0.00 0.00 0.00 1018.1
20260904103058 93 87 3.0 2.0 0.00 0.00 0.00 1018.1
20260904102053 92 267 1.0 0.0 0.00 0.00 0.00 1018.3
20260904101049 89 278 0.0 0.0 0.00 0.00 0.00 1018.4
20260904100052 89 208 1.0 3.0 0.00 0.00 0.00 1018.5
20260904095050 89 359 1.0 0.0 0.00 0.00 0.00 1018.7
20260904094053 88 170 4.0 4.0 0.00 0.00 0.00 1018.6
20260904093056 86 264 0.0 1.0 0.00 0.00 0.00 1018.7
20260904092058 85 253 0.0 0.0 0.00 0.00 0.00 1018.8
20260904091055 84 259 4.0 4.0 0.00 0.00 0.00 1018.8
20260904090046 84 312 4.0 3.0 0.00 0.00 0.00 1018.7
20260904085046 82 300 5.0 5.0 0.00 0.00 0.00 1018.7
20260904084049 81 312 5.0 3.0 0.00 0.00 0.00 1018.7
20260904083051 81 328 7.0 4.0 0.00 0.00 0.00 1018.8
20260904082050 79 295 9.0 8.0 0.00 0.00 0.00 1018.8
20260904081053 79 316 4.0 5.0 0.00 0.00 0.00 1018.7
20260904080048 78 307 6.0 4.0 0.00 0.00 0.00 1018.7
20260904075051 77 319 8.0 9.0 0.00 0.00 0.00 1018.8
20260904074053 76 273 7.0 6.0 0.00 0.00 0.00 1018.8
20260904073053 76 295 8.0 8.0 0.00 0.00 0.00 1018.8
20260904072056 75 316 8.0 7.0 0.00 0.00 0.00 1018.8
20260904071055 74 315 7.0 6.0 0.00 0.00 0.00 1018.9
20260904070056 74 305 4.0 7.0 0.00 0.00 0.00 1019.0
20260904065051 73 340 5.0 8.0 0.00 0.00 0.00 1019.0
20260904064053 72 311 5.0 5.0 0.00 0.00 0.00 1018.9
20260904063048 72 300 8.0 9.0 0.00 0.00 0.00 1019.0
20260904062051 72 312 6.0 3.0 0.00 0.00 0.00 1018.8
20260904061053 72 283 5.0 6.0 0.00 0.00 0.00 1018.7
20260904060056 72 290 5.0 7.0 0.00 0.00 0.00 1018.7
20260904055055 72 281 5.0 5.0 0.00 0.00 0.00 1018.5
20260904054050 72 329 4.0 2.0 0.00 0.00 0.00 1018.5
20260904053053 72 269 4.0 4.0 0.00 0.00 0.00 1018.6
20260904052055 72 346 0.0 0.0 0.00 0.00 0.00 1018.7
20260904051058 72 0 2.0 1.0 0.00 0.00 0.00 1018.8
20260904050051 73 103 1.0 0.0 0.00 0.00 0.00 1018.7
20260904045053 73 125 3.0 2.0 0.00 0.00 0.00 1018.7
20260904044056 73 232 0.0 0.0 0.00 0.00 0.00 1018.7
20260904043049 73 173 1.0 3.0 0.00 0.00 0.00 1018.8
20260904042050 73 300 3.0 2.0 0.00 0.00 0.00 1018.9
20260904041048 73 290 2.0 6.0 0.00 0.00 0.00 1019.0
20260904040048 73 302 3.0 3.0 0.00 0.00 0.00 1019.0
20260904035047 73 273 4.0 3.0 0.00 0.00 0.00 1019.2
20260904034049 73 291 6.0 3.0 0.00 0.00 0.00 1019.3
20260904033048 73 278 3.0 3.0 0.00 0.00 0.00 1019.4
20260904032042 73 322 6.0 6.0 0.00 0.00 0.00 1019.4
20260904031132 73 333 8.0 7.0 0.00 0.00 0.00 1019.4
20260904031044 73 333 8.0 7.0 0.00 0.00 0.00 1019.4
20260904030047 73 343 5.0 2.0 0.00 0.00 0.00 1019.4
20260904025217 73 323 5.0 4.0 0.00 0.00 0.00 1019.5
20260904025049 73 323 5.0 4.0 0.00 0.00 0.00 1019.5
20260904024051 73 318 6.0 7.0 0.00 0.00 0.00 1019.5
20260904023054 74 311 5.0 6.0 0.00 0.00 0.00 1019.5
20260904022057 74 305 5.0 5.0 0.00 0.00 0.00 1019.5
20260904021051 74 339 6.0 5.0 0.00 0.00 0.00 1019.5
20260904020053 74 262 5.0 4.0 0.00 0.00 0.00 1019.6
20260904015054 74 312 5.0 3.0 0.00 0.00 0.00 1019.8
20260904015035 75 291 4.0 4.0 0.00 0.00 0.00 1019.8
20260904014057 75 291 4.0 4.0 0.00 0.00 0.00 1019.8
20260904013056 74 307 4.0 3.0 0.00 0.00 0.00 1019.9
20260904012052 75 276 3.0 4.0 0.00 0.00 0.00 1020.0
20260904011052 74 311 5.0 5.0 0.00 0.00 0.00 1020.0
20260904010049 75 287 4.0 2.0 0.00 0.00 0.00 1020.1
20260904005050 75 319 5.0 3.0 0.00 0.00 0.00 1020.0
20260904004047 76 326 1.0 2.0 0.00 0.00 0.00 1020.0
20260904003046 75 323 1.0 0.0 0.00 0.00 0.00 1020.1
20260904002049 76 311 2.0 1.0 0.00 0.00 0.00 1020.1
20260904001049 76 347 1.0 3.0 0.00 0.00 0.00 1020.2
20260904000052 76 229 0.0 0.0 0.00 0.00 0.00 1020.2
20260903235047 76 229 0.0 0.0 0.00 0.00 0.00 1020.2
20260903234047 76 200 1.0 0.0 0.00 0.00 0.00 1020.3
20260903233048 77 285 2.0 1.0 0.00 0.00 0.00 1020.4
20260903232051 77 221 1.0 1.0 0.00 0.00 0.00 1020.4
20260903231053 77 318 0.0 0.0 0.00 0.00 0.00 1020.4
20260903230056 77 336 1.0 1.0 0.00 0.00 0.00 1020.4
20260903225053 77 333 2.0 1.0 0.00 0.00 0.00 1020.4